• In Deutschland
  • Länderverzeichnis
  • Für 7 Tage
  • Wassertemperatur
  • Satellitenkarten
  • Wetterkarte
  • Widgets
  • user-avatar
    Anmelden

    Stündliche Wetter Shaki

    Heute, 24 Februar, Samstag

    Zeit Temperatur Niederschläge Wind Luftdruck Luftfeuchtigkeit
    00:00 +6°C° 0 mm 1 m/S 732 mmHg 77%
    01:00 +6°C° 0 mm 1 m/S 732 mmHg 75%
    02:00 +6°C° 0 mm 1 m/S 732 mmHg 74%
    03:00 +6°C° 0 mm 1 m/S 731 mmHg 72%
    04:00 +5°C° 0 mm 2 m/S 731 mmHg 70%
    05:00 +5°C° 0 mm 2 m/S 731 mmHg 68%
    06:00 +5°C° 0 mm 2 m/S 731 mmHg 66%
    07:00 +6°C° 0 mm 2 m/S 731 mmHg 61%
    08:00 +8°C° 0 mm 2 m/S 731 mmHg 56%
    09:00 +9°C° 0 mm 2 m/S 731 mmHg 51%
    10:00 +10°C° 0 mm 2 m/S 731 mmHg 48%
    11:00 +13°C° 0 mm 2 m/S 731 mmHg 46%
    12:00 +13°C° 0 mm 3 m/S 730 mmHg 43%
    13:00 +14°C° 0 mm 2 m/S 730 mmHg 42%
    14:00 +14°C° 0 mm 2 m/S 730 mmHg 40%
    15:00 +15°C° 0 mm 2 m/S 730 mmHg 39%
    16:00 +13°C° 0 mm 1 m/S 730 mmHg 42%
    17:00 +12°C° 0 mm 1 m/S 730 mmHg 46%
    18:00 +11°C° 0 mm 1 m/S 731 mmHg 49%
    19:00 +10°C° 0 mm 1 m/S 731 mmHg 49%
    20:00 +9°C° 0 mm 2 m/S 731 mmHg 49%
    21:00 +8°C° 0 mm 2 m/S 731 mmHg 49%
    22:00 +8°C° 0 mm 2 m/S 731 mmHg 49%
    23:00 +7°C° 0 mm 2 m/S 731 mmHg 48%

    Morgen, 25 Februar, Sonntag

    Zeit Temperatur Niederschläge Wind Luftdruck Luftfeuchtigkeit
    00:00 +7°C° 0 mm 2 m/S 731 mmHg 48%
    01:00 +7°C° 0 mm 2 m/S 731 mmHg 48%
    02:00 +6°C° 0 mm 2 m/S 731 mmHg 49%
    03:00 +7°C° 0 mm 1 m/S 731 mmHg 50%
    04:00 +7°C° 0 mm 1 m/S 731 mmHg 50%
    05:00 +7°C° 0 mm 1 m/S 731 mmHg 50%
    06:00 +7°C° 0 mm 1 m/S 730 mmHg 51%
    07:00 +8°C° 0 mm 1 m/S 730 mmHg 47%
    08:00 +9°C° 0 mm 1 m/S 730 mmHg 43%
    09:00 +11°C° 0 mm 1 m/S 730 mmHg 40%
    10:00 +12°C° 0 mm 2 m/S 730 mmHg 38%
    11:00 +13°C° 0 mm 2 m/S 729 mmHg 35%
    12:00 +14°C° 0 mm 2 m/S 729 mmHg 33%
    13:00 +14°C° 0 mm 2 m/S 729 mmHg 33%
    14:00 +14°C° 0 mm 2 m/S 728 mmHg 33%
    15:00 +15°C° 0 mm 2 m/S 728 mmHg 32%
    16:00 +14°C° 0 mm 2 m/S 728 mmHg 34%
    17:00 +12°C° 0 mm 2 m/S 728 mmHg 36%
    18:00 +11°C° 0 mm 1 m/S 728 mmHg 38%
    19:00 +11°C° 0 mm 1 m/S 728 mmHg 38%
    20:00 +9°C° 0 mm 2 m/S 728 mmHg 37%
    21:00 +9°C° 0 mm 2 m/S 728 mmHg 36%
    22:00 +9°C° 0 mm 2 m/S 728 mmHg 37%
    23:00 +8°C° 0 mm 2 m/S 728 mmHg 38%

    übermorgen, 26 Februar, Montag

    Zeit Temperatur Niederschläge Wind Luftdruck Luftfeuchtigkeit
    00:00 +8°C° 0 mm 2 m/S 728 mmHg 38%
    01:00 +8°C° 0 mm 2 m/S 728 mmHg 40%
    02:00 +8°C° 0 mm 2 m/S 728 mmHg 41%
    03:00 +8°C° 0 mm 2 m/S 727 mmHg 43%
    04:00 +8°C° 0 mm 2 m/S 728 mmHg 44%
    05:00 +8°C° 0 mm 2 m/S 728 mmHg 45%
    06:00 +8°C° 0 mm 2 m/S 728 mmHg 46%
    07:00 +9°C° 0 mm 3 m/S 728 mmHg 45%
    08:00 +10°C° 0 mm 3 m/S 728 mmHg 45%
    09:00 +12°C° 0 mm 4 m/S 729 mmHg 45%
    10:00 +12°C° 0 mm 4 m/S 729 mmHg 44%
    11:00 +13°C° 0 mm 5 m/S 729 mmHg 43%
    12:00 +14°C° 0 mm 5 m/S 729 mmHg 42%
    13:00 +14°C° 0 mm 5 m/S 729 mmHg 40%
    14:00 +14°C° 0 mm 5 m/S 729 mmHg 39%
    15:00 +15°C° 0 mm 5 m/S 729 mmHg 37%
    16:00 +13°C° 0 mm 4 m/S 729 mmHg 39%
    17:00 +12°C° 0 mm 3 m/S 730 mmHg 40%
    18:00 +12°C° 0 mm 2 m/S 731 mmHg 41%
    19:00 +10°C° 0 mm 2 m/S 731 mmHg 41%
    20:00 +10°C° 0 mm 2 m/S 732 mmHg 40%
    21:00 +9°C° 0 mm 2 m/S 732 mmHg 40%
    22:00 +9°C° 0 mm 2 m/S 733 mmHg 40%
    23:00 +9°C° 0 mm 2 m/S 733 mmHg 40%

    27 Februar, Dienstag

    Zeit Temperatur Niederschläge Wind Luftdruck Luftfeuchtigkeit
    00:00 +8°C° 0 mm 2 m/S 733 mmHg 40%
    01:00 +8°C° 0 mm 2 m/S 733 mmHg 45%
    02:00 +7°C° 0 mm 2 m/S 733 mmHg 49%
    03:00 +7°C° 0 mm 2 m/S 733 mmHg 54%
    04:00 +7°C° 0 mm 2 m/S 733 mmHg 57%
    05:00 +6°C° 0 mm 2 m/S 734 mmHg 61%
    06:00 +6°C° 0 mm 2 m/S 734 mmHg 64%
    07:00 +7°C° 0,1 mm 2 m/S 734 mmHg 65%
    08:00 +7°C° 0,1 mm 2 m/S 735 mmHg 66%
    09:00 +8°C° 0,1 mm 2 m/S 735 mmHg 67%
    10:00 +8°C° 0,1 mm 3 m/S 735 mmHg 68%
    11:00 +9°C° 0,1 mm 3 m/S 735 mmHg 69%
    12:00 +9°C° 0,1 mm 3 m/S 735 mmHg 70%
    13:00 +9°C° 0 mm 3 m/S 735 mmHg 70%
    14:00 +9°C° 0 mm 3 m/S 734 mmHg 70%
    15:00 +10°C° 0 mm 2 m/S 734 mmHg 70%
    16:00 +9°C° 0 mm 2 m/S 734 mmHg 73%
    17:00 +8°C° 0 mm 2 m/S 735 mmHg 77%
    18:00 +9°C° 0 mm 1 m/S 735 mmHg 80%
    19:00 +8°C° 0 mm 1 m/S 735 mmHg 81%
    20:00 +8°C° 0 mm 1 m/S 736 mmHg 83%
    21:00 +7°C° 0 mm 1 m/S 736 mmHg 84%
    22:00 +7°C° 0 mm 1 m/S 736 mmHg 85%
    23:00 +7°C° 0 mm 1 m/S 736 mmHg 85%

    28 Februar, Mittwoch

    Zeit Temperatur Niederschläge Wind Luftdruck Luftfeuchtigkeit
    00:00 +7°C° 0 mm 1 m/S 736 mmHg 85%
    01:00 +6°C° 0 mm 1 m/S 735 mmHg 84%
    02:00 +6°C° 0 mm 1 m/S 735 mmHg 83%
    03:00 +6°C° 0 mm 1 m/S 735 mmHg 82%
    04:00 +6°C° 0 mm 1 m/S 736 mmHg 81%
    05:00 +6°C° 0 mm 1 m/S 736 mmHg 79%
    06:00 +6°C° 0 mm 1 m/S 736 mmHg 78%
    07:00 +7°C° 0 mm 1 m/S 736 mmHg 74%
    08:00 +8°C° 0 mm 2 m/S 736 mmHg 69%
    09:00 +9°C° 0 mm 2 m/S 737 mmHg 64%
    10:00 +10°C° 0 mm 2 m/S 737 mmHg 60%
    11:00 +12°C° 0 mm 2 m/S 737 mmHg 57%
    12:00 +13°C° 0 mm 2 m/S 736 mmHg 53%
    13:00 +14°C° 0 mm 2 m/S 736 mmHg 52%
    14:00 +14°C° 0 mm 2 m/S 736 mmHg 51%
    15:00 +15°C° 0 mm 2 m/S 736 mmHg 51%
    16:00 +14°C° 0 mm 2 m/S 737 mmHg 56%
    17:00 +12°C° 0 mm 2 m/S 737 mmHg 62%
    18:00 +10°C° 0 mm 2 m/S 737 mmHg 67%
    19:00 +10°C° 0 mm 2 m/S 738 mmHg 70%
    20:00 +9°C° 0 mm 2 m/S 738 mmHg 72%
    21:00 +8°C° 0 mm 3 m/S 738 mmHg 75%
    22:00 +8°C° 0 mm 2 m/S 738 mmHg 76%
    23:00 +8°C° 0 mm 2 m/S 738 mmHg 78%

    1 März, Donnerstag

    Zeit Temperatur Niederschläge Wind Luftdruck Luftfeuchtigkeit
    00:00 +7°C° 0 mm 2 m/S 738 mmHg 79%
    01:00 +7°C° 0 mm 2 m/S 738 mmHg 80%
    02:00 +7°C° 0 mm 1 m/S 738 mmHg 80%
    03:00 +7°C° 0 mm 1 m/S 738 mmHg 80%
    04:00 +7°C° 0 mm 1 m/S 738 mmHg 80%
    05:00 +7°C° 0 mm 1 m/S 738 mmHg 80%
    06:00 +5°C° 0 mm 0 m/S 738 mmHg 80%
    07:00 +7°C° 0 mm 1 m/S 738 mmHg 77%
    08:00 +9°C° 0 mm 1 m/S 738 mmHg 73%
    09:00 +10°C° 0 mm 1 m/S 738 mmHg 70%
    10:00 +11°C° 0 mm 1 m/S 737 mmHg 67%
    11:00 +12°C° 0 mm 1 m/S 737 mmHg 65%
    12:00 +13°C° 0 mm 1 m/S 736 mmHg 62%
    13:00 +13°C° 0 mm 2 m/S 736 mmHg 60%
    14:00 +14°C° 0 mm 2 m/S 735 mmHg 57%
    15:00 +14°C° 0 mm 2 m/S 735 mmHg 55%
    16:00 +13°C° 0 mm 1 m/S 735 mmHg 59%
    17:00 +12°C° 0 mm 1 m/S 735 mmHg 63%
    18:00 +11°C° 0 mm 1 m/S 736 mmHg 67%
    19:00 +11°C° 0 mm 1 m/S 736 mmHg 68%
    20:00 +9°C° 0 mm 0 m/S 737 mmHg 69%
    21:00 +9°C° 0 mm 0 m/S 737 mmHg 70%
    22:00 +10°C° 0 mm 1 m/S 737 mmHg 70%
    23:00 +9°C° 0 mm 1 m/S 737 mmHg 70%
    Mehr zeigen